[ hide orbit diagram ]
For accurate long-term ephemerides, please instead use our Horizons system.This orbit viewer was implemented using two-body methods, and hence should not be used for determining accurate long-term trajectories (over several years or decades) or planetary encounter circumstances.
Orbital Elements at Epoch 2459000.5 (2020-May-31.0) TDB
Reference: JPL 23 (heliocentric ecliptic J2000)
Element | Value | Uncertainty (1-sigma) | Units |
e | .05256277546049701 | 3.967e-08 | |
a | 2.650435719946755 | 1.2943e-08 | au |
q | 2.511121462326713 | 1.0995e-07 | au |
i | 2.967122045950253 | 4.3874e-06 | deg |
node | 174.1158891116792 | 7.2128e-05 | deg |
peri | 243.8173056682704 | 8.3233e-05 | deg |
M | 272.6034146469152 | 4.2802e-05 | deg |
tp | 2459383.118799494243 (2021-Jun-17.61879949) | 0.0001882 | TDB |
period | 1576.065784051431 4.32 | 1.1545e-05 3.161e-08 | d yr |
n | .228416861556746 | 1.6731e-09 | deg/d |
Q | 2.789749977566797 | 1.3623e-08 | au |
|
| | Orbit Determination Parameters
Additional Information
|
[ show covariance matrix ]
Physical Parameter Table
Parameter |
Symbol |
Value |
Units |
Sigma |
Reference |
Notes |
absolute magnitude |
H |
15.6 |
|
n/a |
MPO436278 |
|
|
70926 (1999 VJ208) Discovered 1999-Nov-09 by Spacewatch at Kitt Peak |
Reference: 20031109/Numbers.arc | Last Updated: 2004-04-19 |
|
|